sat.trackr.live / text

‹ back to catalog

STARLINK-35126

NORAD 65503 · 2025-198M

PAYLOAD ACTIVE UNKNOWN

§ Identity

Operator
Country
US
Launch date
2025-09-05
Launch site
AFETR
Launch vehicle
Mass (kg)
RCS (m²)

Purposes: comms

External: N2YO · Heavens-Above · Gunter

§ Orbital elements

Epoch: 2026-09-20T21:31:44.648256Z

Period
93.85 min
Inclination
53.1571°
Eccentricity
0.0001479
Mean motion
15.34427537 rev/d
Perigee alt
461.6 km
Apogee alt
463.6 km
Semi-major
6,840.8 km
B*
5.7144e-4
RAAN
81.6946°
Arg perigee
83.1453°
Mean anomaly
276.9718°
Rev number
5,854

§ Raw data

STARLINK-351261 65503U 25198M   26263.89704454  .00018997  00000+0  57144-3 0  99912 65503  53.1571  81.6946 0001479  83.1453 276.9718 15.34427537 58545

JSON: /api/v1/satellites/65503 · /tle

For live sub-satellite position, see the globe view (requires WebGL).

§ Visibility from observer

Set your observer location to see the next 7 days of passes ≥ 10°. The values pass through the URL so the page stays shareable.

No JS? Fill the form by hand. The geolocation button needs JavaScript.